Weather History for Wray Municipal Airport, CO

Change the Weather History Date:

Saturday, March 1, 2014

  Actual Average (KHEQ) Record (KHEQ)
Temperature  
Mean Temperature 9 °F -  
Max Temperature 17 °F 51 °F 15 °F (2014)
Min Temperature 1 °F 22 °F 1 °F (2014)
Degree Days  
Heating Degree Days 56    
Moisture  
Dew Point 6 °F    
Average Humidity 85    
Maximum Humidity 94    
Minimum Humidity 76    
Precipitation  
Precipitation 0.00 in - - ()
Sea Level Pressure  
Sea Level Pressure 30.10 in    
Wind  
Wind Speed 13 mph (ENE)    
Max Wind Speed 17 mph    
Max Gust Speed 21 mph    
Visibility 6 miles    
Events Snow    
Averages and records for this station are not official NWS values.
T = Trace of Precipitation, MM = Missing Value Source: NWS Daily Summary

Daily Weather History Graph

Daily Weather History Graph

Search for Another Location

Airport:

Trip Planner

Search our weather history database for the weather conditions in past years. The results will help you decide how hot, cold, wet, or windy it might be!

Date:

Astronomy

Mar. 01, 2014 Rise Set
Actual Time 6:22 AM MST 5:40 PM MST
Civil Twilight 5:55 AM MST 6:08 PM MST
Nautical Twilight 5:23 AM MST 6:39 PM MST
Astronomical Twilight 4:52 AM MST 7:10 PM MST
Moon 6:17 AM MST (3/1) 6:30 PM MST (3/1)
Length of Visible Light 12h 12m
Length of Day
11h 18m
New Moon, 0% of the Moon is Illuminated
Mar 1
New Moon
Mar 8
First Quarter
Mar 16
Full
Mar 23
Last Quarter
Mar 30
New

Hourly Weather History & Observations

Time (MST) Temp. Windchill Dew Point Humidity Pressure Visibility Wind Dir Wind Speed Gust Speed Precip Events Conditions
12:15 AM 17.4 °F 2.9 °F 15.8 °F 93% 29.99 in 7.0 mi NE 15.0 mph - N/A   Overcast
12:35 AM 16.7 °F 3.2 °F 14.9 °F 93% 30.00 in 7.0 mi ENE 12.7 mph - N/A   Overcast
12:55 AM 16.7 °F 3.2 °F 15.1 °F 93% 30.00 in 7.0 mi ENE 12.7 mph - N/A   Overcast
1:15 AM 16.7 °F 3.8 °F 14.9 °F 93% 30.00 in 7.0 mi ENE 11.5 mph - N/A   Overcast
1:35 AM 16.3 °F 4.1 °F 14.9 °F 94% 30.00 in 4.0 mi ENE 10.4 mph - N/A   Overcast
1:55 AM 16.3 °F 4.1 °F 14.9 °F 94% 30.01 in 4.0 mi East 10.4 mph - N/A Snow Light Snow
2:15 AM 15.8 °F 2.7 °F 14.4 °F 94% 30.00 in 3.0 mi East 11.5 mph - N/A Snow Light Snow
2:35 AM 15.6 °F 1.8 °F 14.0 °F 93% 29.98 in 3.0 mi East 12.7 mph - N/A Snow Light Snow
2:55 AM 14.9 °F 0.3 °F 13.3 °F 93% 29.97 in 4.0 mi East 13.8 mph - N/A Snow Light Snow
3:15 AM 14.9 °F 0.9 °F 13.1 °F 93% 29.97 in 4.0 mi East 12.7 mph 16.1 mph N/A Snow Light Snow
3:35 AM 14.7 °F 0.7 °F 12.9 °F 93% 29.97 in 4.0 mi East 12.7 mph - N/A Snow Light Snow
3:55 AM 14.9 °F 1.6 °F 13.1 °F 93% 29.98 in 5.0 mi East 11.5 mph - N/A Snow Light Snow
4:15 AM 14.9 °F 0.9 °F 13.1 °F 93% 29.98 in 4.0 mi East 12.7 mph 17.3 mph N/A Snow Light Snow
4:35 AM 15.1 °F 1.8 °F 13.3 °F 93% 29.99 in 3.0 mi East 11.5 mph - N/A Snow Light Snow
4:55 AM 14.7 °F 1.4 °F 12.9 °F 93% 29.98 in 3.0 mi East 11.5 mph - N/A Snow Light Snow
5:15 AM 14.5 °F -0.7 °F 12.7 °F 93% 29.99 in 2.5 mi East 15.0 mph - N/A Snow Light Snow
5:35 AM 14.5 °F -0.7 °F 12.6 °F 92% 30.00 in 2.5 mi East 15.0 mph 19.6 mph N/A Snow Light Snow
5:55 AM 14.5 °F -0.2 °F 12.7 °F 93% 30.01 in 1.8 mi East 13.8 mph - N/A Snow Light Snow
6:15 AM 13.6 °F -1.9 °F 11.5 °F 91% 30.01 in 1.5 mi ENE 15.0 mph - N/A Snow Light Snow
6:35 AM 13.3 °F -2.4 °F 11.1 °F 91% 30.01 in 1.5 mi ENE 15.0 mph 19.6 mph N/A Snow Light Snow
6:55 AM 13.1 °F -1.4 °F 11.1 °F 92% 30.03 in 1.8 mi ENE 12.7 mph - N/A Snow Light Snow
7:15 AM 12.7 °F -3.6 °F 10.4 °F 90% 30.03 in 1.8 mi ENE 16.1 mph - N/A Snow Light Snow
7:35 AM 12.6 °F -3.3 °F 10.2 °F 90% 30.06 in 1.2 mi ENE 15.0 mph - N/A Snow Light Snow
7:55 AM 12.2 °F -3.1 °F 9.5 °F 89% 30.06 in 3.0 mi ENE 13.8 mph 20.7 mph N/A Snow Light Snow
8:15 AM 12.2 °F -4.3 °F 9.3 °F 88% 30.06 in 3.0 mi ENE 16.1 mph - N/A Snow Light Snow
8:35 AM 12.2 °F -3.7 °F 9.1 °F 88% 30.08 in 4.0 mi East 15.0 mph 20.7 mph N/A Snow Light Snow
8:55 AM 11.8 °F -2.3 °F 8.6 °F 87% 30.07 in 1.5 mi ENE 11.5 mph 17.3 mph N/A Snow Light Snow
9:15 AM 11.3 °F -4.3 °F 8.4 °F 88% 30.08 in 2.5 mi East 13.8 mph 18.4 mph N/A Snow Light Snow
9:35 AM 12.0 °F -4.0 °F 8.2 °F 85% 30.11 in 1.5 mi East 15.0 mph - N/A Snow Light Snow
9:55 AM 12.0 °F -4.5 °F 7.7 °F 83% 30.12 in 5.0 mi ENE 16.1 mph - N/A   Overcast
10:15 AM 12.2 °F -2.5 °F 7.9 °F 83% 30.12 in 2.0 mi ENE 12.7 mph - N/A Snow Light Snow
10:35 AM 11.7 °F -5.0 °F 6.8 °F 81% 30.12 in 4.0 mi ENE 16.1 mph - N/A   Overcast
10:55 AM 11.7 °F -4.4 °F 7.2 °F 82% 30.12 in 2.5 mi East 15.0 mph - N/A Snow Light Snow
11:15 AM 11.5 °F -5.2 °F 7.0 °F 82% 30.11 in 2.5 mi East 16.1 mph 20.7 mph N/A Snow Light Snow
11:35 AM 11.8 °F -4.2 °F 6.8 °F 80% 30.13 in 3.0 mi ENE 15.0 mph - N/A   Haze
11:55 AM 11.3 °F -4.3 °F 5.7 °F 78% 30.12 in 10.0 mi East 13.8 mph - N/A   Overcast
12:15 PM 10.4 °F -7.2 °F 5.9 °F 82% 30.10 in 1.5 mi NE 17.3 mph - N/A Snow Light Snow
12:35 PM 10.4 °F -6.6 °F 5.7 °F 81% 30.09 in 1.8 mi ENE 16.1 mph - N/A Snow Light Snow
12:55 PM 10.0 °F -7.1 °F 5.5 °F 82% 30.07 in 1.2 mi East 16.1 mph - N/A Snow Light Snow
1:15 PM 10.6 °F -5.2 °F 4.5 °F 76% 30.10 in 5.0 mi East 13.8 mph - N/A   Haze
1:55 PM 10.2 °F -2.7 °F 4.1 °F 76% 30.11 in 7.0 mi ENE 9.2 mph - N/A   Overcast
2:15 PM 9.9 °F -6.1 °F 4.3 °F 78% 30.08 in 7.0 mi East 13.8 mph - N/A   Overcast
2:35 PM 9.3 °F -6.8 °F 3.9 °F 79% 30.10 in 4.0 mi ENE 13.8 mph - N/A   Haze
2:55 PM 8.6 °F -8.9 °F 3.7 °F 81% 30.12 in 5.0 mi NE 16.1 mph - N/A   Haze
3:15 PM 9.1 °F -4.9 °F 3.7 °F 79% 30.13 in 3.0 mi ENE 10.4 mph - N/A   Haze
3:35 PM 7.5 °F -8.4 °F 2.7 °F 81% 30.13 in 2.5 mi NE 12.7 mph - N/A Snow Light Snow
3:55 PM 7.0 °F -10.4 °F 2.1 °F 80% 30.11 in 4.0 mi NE 15.0 mph - N/A   Haze
4:15 PM 6.6 °F -10.2 °F 1.4 °F 79% 30.12 in 10.0 mi NE 13.8 mph - N/A   Overcast
4:35 PM 6.4 °F -11.7 °F 1.8 °F 81% 30.10 in 10.0 mi NE 16.1 mph - N/A   Overcast
4:55 PM 5.9 °F -9.7 °F 1.4 °F 82% 30.12 in 7.0 mi NE 11.5 mph - N/A   Overcast
5:15 PM 5.9 °F -8.9 °F 1.2 °F 81% 30.16 in 7.0 mi NE 10.4 mph - N/A   Overcast
5:35 PM 5.4 °F -11.1 °F 1.0 °F 82% 30.15 in 4.0 mi NE 12.7 mph - N/A   Overcast
5:55 PM 5.0 °F -11.6 °F 0.5 °F 82% 30.17 in 7.0 mi NE 12.7 mph - N/A   Overcast
6:15 PM 4.8 °F -12.5 °F 0.3 °F 82% 30.18 in 10.0 mi NE 13.8 mph - N/A Snow Light Snow
6:35 PM 4.6 °F -12.0 °F -0.4 °F 80% 30.19 in 10.0 mi ENE 12.7 mph - N/A Snow Light Snow
6:55 PM 4.5 °F -11.5 °F -0.4 °F 80% 30.19 in 10.0 mi ENE 11.5 mph - N/A Snow Light Snow
7:15 PM 3.9 °F -13.0 °F -0.8 °F 81% 30.19 in 10.0 mi NE 12.7 mph - N/A   Overcast
7:35 PM 3.6 °F -14.1 °F -1.3 °F 80% 30.20 in 10.0 mi NE 13.8 mph - N/A   Overcast
7:55 PM 3.0 °F -15.5 °F -1.5 °F 82% 30.20 in 10.0 mi NE 15.0 mph - N/A   Overcast
8:15 PM 2.8 °F -15.0 °F -2.0 °F 80% 30.21 in 10.0 mi ENE 13.8 mph - N/A   Overcast
8:35 PM 2.7 °F -15.3 °F -1.8 °F 81% 30.22 in 10.0 mi NE 13.8 mph - N/A   Overcast
8:55 PM 2.3 °F -13.4 °F -2.4 °F 81% 30.23 in 10.0 mi ENE 10.4 mph - N/A   Overcast
9:15 PM 1.9 °F -14.7 °F -3.1 °F 79% 30.22 in 10.0 mi ENE 11.5 mph - N/A   Overcast
9:35 PM 1.8 °F -14.0 °F -3.3 °F 79% 30.23 in 10.0 mi ENE 10.4 mph - N/A   Overcast
9:55 PM 1.8 °F -12.0 °F -3.1 °F 80% 30.24 in 10.0 mi ENE 8.1 mph - N/A   Overcast
10:15 PM 1.8 °F -13.1 °F -3.3 °F 79% 30.24 in 10.0 mi ENE 9.2 mph - N/A   Overcast
10:35 PM 1.8 °F -14.0 °F -3.1 °F 80% 30.23 in 10.0 mi ENE 10.4 mph - N/A   Overcast
10:55 PM 1.4 °F -12.5 °F -3.3 °F 81% 30.25 in 10.0 mi ENE 8.1 mph - N/A   Overcast
11:15 PM 1.4 °F -12.5 °F -3.1 °F 81% 30.25 in 10.0 mi ENE 8.1 mph - N/A   Overcast
11:35 PM 1.4 °F -13.5 °F -3.1 °F 81% 30.23 in 10.0 mi ENE 9.2 mph - N/A   Overcast
11:55 PM 1.2 °F -11.5 °F -3.3 °F 81% 30.24 in 10.0 mi ENE 6.9 mph - N/A   Overcast